Regional Weather Roundup
Issued by NWS

Current Version | Previous Version | Text Only | Print | Product List | Glossary Off
Versions: 1 2 3 4 5 6 7 8 9 10 11 12 13 14 15 16 17 18 19 20 21 22 23 24 25 26 27 28

000
ASUS44 KJAN 230710
RWRMS

MISSISSIPPI HOURLY WEATHER ROUNDUP
NATIONAL WEATHER SERVICE JACKSON MS
100 AM CST FRI FEB 23 2018

NOTE: "FAIR: INDICATES FEW OR NO CLOUDS BELOW 12,000 FEET WITH NO
SIGNIFICANT WEATHER AND/OR OBSTRUCTIONS TO VISIBILITY.

MSZ001>002-007>008-010>013-018>021-025>028-034>036-230800-
NORTHWEST MISSISSIPPI

CITY           SKY/WX    TMP DP  RH WIND       PRES   REMARKS
BATESVILLE       N/A    N/A N/A N/A MISG        N/A
CLARKSDALE       N/A     54  54 100 CALM      30.24S FOG
CLEVELAND      FAIR      52  52 100 S5        30.23F
GREENWOOD      FAIR      68  64  87 S12       30.25R
GREENVILLE     MOCLDY    54  52  93 S3        30.23S
OXFORD         FAIR      63  61  94 S12G20    30.25S
TUNICA           N/A     50  50 100 CALM      30.25S FOG
WINONA         FAIR      68  65  89 S9        30.27R
$$

MSZ003>006-009-014>017-022>024-029>033-037>039-230800-
NORTHEAST MISSISSIPPI

CITY           SKY/WX    TMP DP  RH WIND       PRES   REMARKS
ABERDEEN       FAIR      70  70 100 S7G13     30.29S
COLUMBUS AFB   FAIR      70  65  84 S7        30.28S
CORINTH        FAIR      61  61 100 S6        30.25R
GOLDN TRIANGLE FAIR      66  62  87 S9        30.29F
STARKVILLE     FAIR      68  63  83 S8        30.30S
TUPELO         FAIR      65  61  87 S8        30.26S
$$

MSZ040-058-230800-
CENTRAL MISSISSIPPI

CITY           SKY/WX    TMP DP  RH WIND       PRES   REMARKS
JACKSON INTL   FAIR      68  65  90 SE8       30.29S
JACKSON HAWKNS FAIR      69  66  90 SE12      30.29S
MADISON        PTSUNNY   68  64  88 S3        30.29S
MERIDIAN KEY   FAIR      65  62  90 S5        30.33R
MERIDIAN NAS   FAIR      69  64  84 S3        30.32S
RAYMOND        FAIR      70  66  88 SE5       30.28S
VICKSBURG VKS    N/A    N/A N/A N/A MISG        N/A
$$

MSZ059>079-230800-
SOUTH MISSISSIPPI

CITY           SKY/WX    TMP DP  RH WIND       PRES   REMARKS
COLUMBIA       FAIR      68  66  94 S5        30.35F
HATTIESBURG    MOCLDY    67  67 100 S6        30.33S
LAUREL         PTSUNNY   65  65 100 SE3       30.34R
MCCOMB         CLOUDY    71  66  84 SE9       30.30S
NATCHEZ        CLOUDY    72  68  87 S12       30.27S
PINE BELT      FAIR      64  64 100 SE3       30.33S
$$

MSZ080>082-230800-
COASTAL MISSISSIPPI

CITY           SKY/WX    TMP DP  RH WIND       PRES   REMARKS
BILOXI         CLOUDY    71  69  93 E6        30.30F
PASCAGOULA     FOG       66  63  90 CALM      30.31F VSB 3/4
GULFPORT       MOCLDY    70  69  97 SE6       30.30S
$$

LAZ007>009-015>016-023>026-230800-
NORTHEAST LOUISIANA

CITY           SKY/WX    TMP DP  RH WIND       PRES   REMARKS
BASTROP        FAIR      56  56  98 CALM      30.23F
TALLULAH/VBURG FAIR      70  67  90 S9        30.27R
VIDALIA        CLOUDY    71  68  92 S7        30.25S
$$




USA.gov is the U.S. government's official web portal to all federal, state and local government web resources and services.